Hourly Data Report for November 01, 2013

All times are specified in Local Standard Time (LST). Add 1 hour to adjust for Daylight Saving Time where and when it is observed.

PETAWAWA AWOS 2
ONTARIO

45°57'00.000" N
77°19'00.000" W
130.10 m
6106396
71625
YWA

Download Data

Hourly Data (November 2013)
Hourly Data Report for November 1, 2013
Temp Definition
°C
Dew Point Temp Definition
°C
Rel Hum Definition
%
Wind Dir Definition
10's deg

Wind Spd Definition
km/h
Visibility Definition
km
Stn Press Definition
kPa
Hmdx Definition


Wind Chill Definition


Weather Definition


TIME
00:00 13.0 12.9 99 12 13 4.0 97.48     Drizzle
01:00 12.9 12.9 100 12 11 4.0 97.30     Rain
02:00 13.2 13.1 99 12 11 9.7 97.12     Rain
03:00 13.4 13.1 98 12 9 15.0 96.98      
04:00 13.7 13.3 97 11 11 15.0 96.76      
05:00 13.9 13.5 97 12 13 15.0 96.68      
06:00 14.6 13.7 94 11 11 15.0 96.38     Rain
07:00 15.8 13.9 88 18 19 15.0 96.45     Rain
08:00 15.2 13.4 89 21 32 6.4 96.49     Rain
09:00 14.7 11.0 78 21 19 15.0 96.62      
10:00 13.9 9.6 75 21 20 15.0 96.68     Rain
11:00 13.1 8.4 73 21 24 15.0 96.73     Rain
12:00 13.2 7.8 70 21 20 15.0 96.68      
13:00 12.7 8.2 74 22 32 15.0 96.80     Drizzle
14:00 9.7 6.3 79 25 33 15.0 97.16     Rain
15:00 8.6 4.0 73 27 30 15.0 97.61      
16:00 8.4 3.5 71 28 30 15.0 97.91     Rain
17:00 7.7 3.2 73 28 19 15.0 98.16      
18:00 7.2 3.0 75 27 22 15.0 98.39      
19:00 6.5 2.0 73 30 13 15.0 98.58      
20:00 6.0 1.4 72 29 7 15.0 98.64      
21:00 5.8 1.9 76 27 6 15.0 98.71      
22:00 5.5 2.9 83 28 6 15.0 98.79     Drizzle
23:00 4.5 1.3 80   0 6.4 98.82     Rain

Notes on Data Quality.

Legend

  • E = Estimated
  • M = Missing
  • NA = Not Available
  • ‡ = Partner data that is not subject to review by the National Climate Archives
Date modified: